Regional Weather Roundup
Issued by NWS

Home | Current Version | Previous Version | Text Only | Print | Product List | Glossary Off
Versions: 1 2 3 4 5 6 7 8 9 10 11 12 13 14 15 16 17 18 19 20 21 22 23 24 25 26 27 28 29 30 31 32 33 34 35 36 37 38 39 40 41 42 43 44 45 46 47 48 49 50

000
ASUS43 KFSD 291110
RWRSD

WEATHER ROUNDUP FOR SOUTH DAKOTA
NATIONAL WEATHER SERVICE SIOUX FALLS SD
600 AM CDT MON AUG 29 2016

NOTE: "FAIR" INDICATES FEW OR NO CLOUDS BELOW 12,000 FEET WITH NO
SIGNIFICANT WEATHER AND/OR OBSTRUCTIONS TO VISIBILITY.


SDZ001>005-009-010-012>017-291200-
NORTHWEST AND NORTH CENTRAL SOUTH DAKOTA

CITY           SKY/WX    TMP DP  RH WIND       PRES   REMARKS
BUFFALO          N/A     64  52  64 NE17      30.13R
FAITH            N/A     59  55  87 N14       30.13R
MOBRIDGE       CLEAR     65  56  72 N9        30.05S
$$

SDZ012>016-024>037-041>051-057-063-072>074-291200-
SOUTHWEST AND SOUTH CENTRAL SOUTH DAKOTA

CITY           SKY/WX    TMP DP  RH WIND       PRES   REMARKS
RAPID CTY ARPT CLEAR     64  48  56 N20       30.14R
PIERRE         CLEAR     68  58  70 W7        30.04R
CUSTER         CLOUDY    52  36  54 NW5       30.28R
ELLSWORTH AFB  CLEAR     65  48  54 N26       30.14
PHILIP         CLOUDY    59  57  93 W3        30.08R
PINE RIDGE     CLEAR     62  58  86 W3        30.14S
WINNER         FAIR      71  62  73 SW10      30.09R
$$

SDZ004>011-016>023-039-040-291200-
NORTHEAST SOUTH DAKOTA

CITY           SKY/WX    TMP DP  RH WIND       PRES   REMARKS
ABERDEEN       CLEAR     67  65  93 W5        30.05F
WATERTOWN      CLEAR     70  67  90 S12       30.09S
BROOKINGS        N/A    N/A N/A N/A MISG        N/A
SISSETON         N/A     77  68  73 W9        30.03R
$$

SDZ017-020-022-023-036>040-048>070-291200-
SOUTHEAST SOUTH DAKOTA

CITY           SKY/WX    TMP DP  RH WIND       PRES   REMARKS
SIOUX FALLS    PTCLDY    69  67  93 S3        30.12F
HURON          CLEAR     68  67  96 S9        30.06R
CHAMBERLAIN    PTCLDY    69  63  81 S6        30.08S
MITCHELL       CLEAR     69  67  93 S5        30.09S
YANKTON        PTCLDY    66  63  88 CALM      30.11S
$$

ABBREVIATIONS USED IN REMARKS
   TC - TEMPERATURE IN CELSIUS
  WCI - WIND CHILL INDEX
   HX - HEAT INDEX
  VSB - VISIBILITY





USA.gov is the U.S. government's official web portal to all federal, state and local government web resources and services.